Location: Unspecified
(0.0000°N, 0.0000°E)
Time: 17:24:49
(UTC+00:00)

COSMOS 2251 DEB - Pass Details

Date: 23 February 2026
Orbit: 744 x 1394 km, 73.9° (Epoch: 2 March)

Event Time Altitude Azimuth Distance (km) Brightness Sun altitude
Exits shadow 03:27:53 17° 185° (S) 2,925 ? -40.6°
Drops below altitude 10° 03:29:36 10° 181° (S) 3,468 ? -40.2°
Sets 03:32:37 0° 177° (S) 4,453 ? -39.5°
